RAM218A GMMN-KIAD

Flight info

Callsign RAM218A
Flight time N/A
Altitude 36000
Route ODAXA UH899 IBALU DCT SUBAL DCT LUTAK/M081F360 DCT 38N020W 40N030W 41N040W/M081F380 42N050W 42N060W DCT DOVEY/N0459F380 DCT SAILE DCT ACK Q430 RBV HYPER9
Aircraft A343/H-SDE2E3FGHIJ3J5M1P2RWXYZ/LB1D1

Departure

Time 2026-05-05 07:30
Airport Mohammed V International Airport (GMMN)

Arrival

Time N/A
Airport Washington Dulles International Airport (KIAD)
Time Latitude Longitude Altitude Speed Heading
2026-05-05 06:35 33.37105 -7.58174 657 ft 0 kts 75°
2026-05-05 07:19 33.37103 -7.58181 657 ft 4 kts 77°
2026-05-05 07:19 33.37100 -7.58213 657 ft 4 kts 96°
2026-05-05 07:20 33.37106 -7.58244 657 ft 4 kts 114°
2026-05-05 07:20 33.37115 -7.58264 657 ft 1 kts 121°
2026-05-05 07:20 33.37116 -7.58267 657 ft 0 kts 121°
2026-05-05 07:24 33.37113 -7.58266 657 ft 1 kts 141°
2026-05-05 07:24 33.37092 -7.58264 657 ft 7 kts 172°
2026-05-05 07:25 33.37013 -7.58241 657 ft 14 kts 166°
2026-05-05 07:25 33.36937 -7.58264 657 ft 11 kts 236°
2026-05-05 07:25 33.36911 -7.58382 657 ft 17 kts 254°
2026-05-05 07:25 33.36841 -7.58459 657 ft 14 kts 174°
2026-05-05 07:26 33.36736 -7.58420 657 ft 17 kts 161°
2026-05-05 07:26 33.36612 -7.58380 657 ft 20 kts 165°
2026-05-05 07:26 33.36474 -7.58334 657 ft 22 kts 163°
2026-05-05 07:26 33.36321 -7.58281 656 ft 24 kts 163°
2026-05-05 07:27 33.36157 -7.58224 656 ft 25 kts 163°
2026-05-05 07:27 33.35985 -7.58164 658 ft 27 kts 163°
2026-05-05 07:27 33.35804 -7.58104 658 ft 27 kts 164°
2026-05-05 07:27 33.35628 -7.58044 660 ft 26 kts 164°
2026-05-05 07:28 33.35459 -7.57986 656 ft 25 kts 164°
2026-05-05 07:28 33.35302 -7.57951 656 ft 19 kts 193°
2026-05-05 07:28 33.35239 -7.58069 656 ft 17 kts 253°
2026-05-05 07:28 33.35206 -7.58201 658 ft 16 kts 253°
2026-05-05 07:29 33.35226 -7.58262 658 ft 8 kts 340°
2026-05-05 07:29 33.35367 -7.58313 657 ft 44 kts 345°
2026-05-05 07:29 33.35836 -7.58473 649 ft 94 kts 345°
2026-05-05 07:29 33.36601 -7.58735 660 ft 133 kts 344°
2026-05-05 07:30 33.37607 -7.59078 661 ft 166 kts 347°
2026-05-05 07:30 33.39780 -7.59849 1512 ft 167 kts 347°
2026-05-05 07:30 33.40907 -7.60197 2032 ft 165 kts 354°
2026-05-05 07:31 33.42027 -7.60091 2522 ft 162 kts
2026-05-05 07:31 33.43016 -7.60741 2967 ft 175 kts 307°
2026-05-05 07:31 33.43401 -7.62128 3554 ft 177 kts 285°
2026-05-05 07:31 33.43714 -7.63566 4022 ft 184 kts 290°
2026-05-05 07:32 33.44226 -7.65053 4325 ft 202 kts 298°
2026-05-05 07:32 33.44922 -7.66564 4665 ft 220 kts 302°
2026-05-05 07:32 33.45790 -7.68205 5051 ft 239 kts 304°
2026-05-05 07:32 33.46736 -7.69877 5724 ft 244 kts 304°
2026-05-05 07:33 33.47706 -7.71549 6571 ft 245 kts 303°
2026-05-05 07:33 33.48677 -7.73202 7312 ft 248 kts 303°
2026-05-05 07:33 33.49694 -7.74923 8028 ft 251 kts 303°
2026-05-05 07:33 33.50700 -7.76618 8738 ft 255 kts 303°
2026-05-05 07:34 33.51734 -7.78358 9468 ft 258 kts 303°
2026-05-05 07:34 33.52780 -7.80117 10158 ft 261 kts 303°
2026-05-05 07:34 33.53842 -7.81903 10799 ft 264 kts 303°
2026-05-05 07:34 33.54911 -7.83701 11420 ft 267 kts 303°
2026-05-05 07:35 33.55992 -7.85520 12056 ft 269 kts 303°
2026-05-05 07:35 33.57087 -7.87365 12687 ft 272 kts 302°
2026-05-05 07:35 33.58230 -7.89192 13332 ft 277 kts 308°
2026-05-05 07:35 33.59689 -7.90757 13807 ft 289 kts 319°
2026-05-05 07:36 33.61374 -7.92202 14081 ft 305 kts 321°
2026-05-05 07:36 33.63162 -7.93681 14313 ft 319 kts 321°
2026-05-05 07:36 33.65027 -7.95230 14562 ft 333 kts 321°
2026-05-05 07:36 33.66964 -7.96846 14797 ft 346 kts 321°
2026-05-05 07:37 33.68982 -7.98537 15053 ft 360 kts 321°
2026-05-05 07:37 33.71067 -8.00288 15383 ft 370 kts 321°
2026-05-05 07:37 33.73167 -8.02052 15877 ft 375 kts 321°
2026-05-05 07:37 33.75312 -8.03855 16446 ft 378 kts 321°
2026-05-05 07:38 33.77473 -8.05674 17037 ft 380 kts 321°
2026-05-05 07:38 33.79646 -8.07506 17612 ft 383 kts 321°
2026-05-05 07:38 33.81832 -8.09351 18202 ft 385 kts 321°
2026-05-05 07:38 33.84026 -8.11204 18716 ft 387 kts 321°
2026-05-05 07:39 33.86239 -8.13075 19180 ft 391 kts 321°
2026-05-05 07:39 33.88473 -8.14965 19613 ft 394 kts 321°
2026-05-05 07:39 33.90730 -8.16876 20064 ft 398 kts 321°
2026-05-05 07:39 33.93003 -8.18801 20521 ft 401 kts 321°
2026-05-05 07:40 33.95294 -8.20743 20975 ft 405 kts 321°
2026-05-05 07:40 33.97606 -8.22705 21397 ft 408 kts 321°
2026-05-05 07:40 33.99842 -8.24816 21840 ft 409 kts 315°
2026-05-05 07:40 34.01947 -8.27132 22299 ft 410 kts 313°
2026-05-05 07:41 34.03989 -8.29548 22709 ft 413 kts 311°
2026-05-05 07:41 34.06012 -8.32023 23137 ft 415 kts 311°
2026-05-05 07:41 34.08015 -8.34497 23535 ft 418 kts 311°
2026-05-05 07:41 34.10059 -8.37017 23882 ft 422 kts 311°
2026-05-05 07:42 34.12120 -8.39540 24213 ft 424 kts 311°
2026-05-05 07:42 34.14203 -8.42076 24582 ft 426 kts 311°
2026-05-05 07:42 34.16300 -8.44619 24927 ft 428 kts 311°
2026-05-05 07:42 34.18405 -8.47170 25292 ft 430 kts 311°
2026-05-05 07:43 34.20518 -8.49733 25662 ft 431 kts 311°
2026-05-05 07:43 34.21923 -8.51438 25861 ft 432 kts 311°
2026-05-05 07:43 34.24050 -8.54021 26191 ft 434 kts 311°
2026-05-05 07:43 34.26184 -8.56615 26496 ft 436 kts 311°
2026-05-05 07:44 34.28328 -8.59224 26817 ft 438 kts 311°
2026-05-05 07:44 34.30480 -8.61845 27123 ft 440 kts 311°
2026-05-05 07:44 34.32641 -8.64479 27433 ft 442 kts 311°
2026-05-05 07:44 34.34811 -8.67127 27726 ft 444 kts 311°
2026-05-05 07:45 34.36987 -8.69784 28019 ft 446 kts 311°
2026-05-05 07:45 34.39173 -8.72455 28311 ft 447 kts 311°
2026-05-05 07:45 34.41369 -8.75151 28590 ft 449 kts 310°
2026-05-05 07:45 34.43375 -8.78039 28901 ft 447 kts 303°
2026-05-05 07:46 34.45019 -8.81211 29212 ft 444 kts 295°
2026-05-05 07:46 34.46334 -8.84597 29486 ft 444 kts 291°
2026-05-05 07:46 34.47527 -8.87999 29750 ft 445 kts 290°
2026-05-05 07:46 34.48687 -8.91484 29996 ft 447 kts 289°
2026-05-05 07:47 34.49828 -8.94995 30235 ft 448 kts 289°
2026-05-05 07:47 34.50967 -8.98522 30442 ft 450 kts 289°
2026-05-05 07:47 34.52110 -9.02052 30723 ft 449 kts 289°
2026-05-05 07:47 34.53259 -9.05581 31018 ft 448 kts 289°
2026-05-05 07:48 34.54407 -9.09094 31297 ft 448 kts 289°
2026-05-05 07:48 34.55557 -9.12606 31541 ft 448 kts 289°
2026-05-05 07:48 34.56710 -9.16123 31794 ft 448 kts 289°
2026-05-05 07:48 34.57858 -9.19630 32067 ft 447 kts 289°
2026-05-05 07:49 34.59006 -9.23138 32345 ft 447 kts 289°
2026-05-05 07:49 34.60152 -9.26642 32618 ft 446 kts 289°
2026-05-05 07:49 34.61292 -9.30137 32881 ft 446 kts 289°
2026-05-05 07:49 34.62417 -9.33589 33137 ft 445 kts 289°
2026-05-05 07:50 34.63554 -9.37082 33424 ft 444 kts 289°
2026-05-05 07:50 34.64683 -9.40552 33839 ft 440 kts 288°
2026-05-05 07:50 34.65803 -9.44000 34126 ft 438 kts 288°
2026-05-05 07:50 34.66920 -9.47443 34314 ft 438 kts 288°
2026-05-05 07:51 34.68036 -9.50891 34501 ft 438 kts 288°
2026-05-05 07:51 34.69148 -9.54328 34722 ft 437 kts 288°
2026-05-05 07:51 34.70258 -9.57763 34945 ft 436 kts 288°
2026-05-05 07:51 34.71365 -9.61189 35167 ft 434 kts 288°
2026-05-05 07:52 34.72467 -9.64607 35398 ft 433 kts 288°
2026-05-05 07:52 34.73563 -9.68009 35587 ft 432 kts 288°
2026-05-05 07:52 34.74657 -9.71409 35801 ft 431 kts 288°
2026-05-05 07:52 34.75747 -9.74801 35994 ft 430 kts 288°
2026-05-05 07:53 34.76837 -9.78195 36109 ft 431 kts 288°
2026-05-05 07:53 34.77928 -9.81599 36114 ft 432 kts 288°
2026-05-05 07:53 34.80100 -9.88384 36114 ft 430 kts 288°
2026-05-05 07:54 34.82253 -9.95123 36113 ft 430 kts 288°
2026-05-05 07:54 34.84416 -10.01913 36120 ft 430 kts 288°
2026-05-05 07:55 34.86571 -10.08688 36116 ft 429 kts 288°
2026-05-05 07:55 34.88724 -10.15473 36118 ft 429 kts 288°
2026-05-05 07:56 34.90874 -10.22266 36121 ft 429 kts 288°
2026-05-05 07:56 34.93020 -10.29061 36124 ft 429 kts 288°
2026-05-05 07:57 34.95159 -10.35851 36124 ft 429 kts 288°
2026-05-05 07:57 34.97297 -10.42651 36124 ft 429 kts 288°
2026-05-05 07:58 34.99428 -10.49443 36124 ft 429 kts 287°
2026-05-05 07:58 35.01542 -10.56201 36124 ft 429 kts 287°
2026-05-05 07:59 35.03668 -10.63009 36144 ft 430 kts 287°
2026-05-05 07:59 35.05790 -10.69820 36126 ft 429 kts 287°
2026-05-05 08:00 35.07907 -10.76631 36132 ft 428 kts 287°
2026-05-05 08:00 35.10017 -10.83436 36132 ft 428 kts 287°
2026-05-05 08:01 35.12122 -10.90243 36130 ft 428 kts 287°
2026-05-05 08:01 35.14223 -10.97051 36130 ft 429 kts 287°
2026-05-05 08:02 35.16324 -11.03874 36132 ft 429 kts 287°
2026-05-05 08:02 35.18408 -11.10660 36132 ft 429 kts 287°
2026-05-05 08:03 35.20504 -11.17498 36135 ft 429 kts 287°
2026-05-05 08:03 35.22595 -11.24335 36135 ft 429 kts 287°
2026-05-05 08:04 35.24682 -11.31177 36142 ft 428 kts 287°
2026-05-05 08:04 35.26761 -11.38007 36140 ft 428 kts 287°
2026-05-05 08:05 35.28833 -11.44833 36138 ft 428 kts 287°
2026-05-05 08:05 35.30888 -11.51620 36137 ft 428 kts 287°
2026-05-05 08:06 35.32954 -11.58456 36137 ft 428 kts 287°
2026-05-05 08:06 35.35014 -11.65290 36140 ft 428 kts 287°
2026-05-05 08:07 35.37074 -11.72138 36141 ft 428 kts 287°
2026-05-05 08:07 35.39126 -11.78977 36143 ft 428 kts 287°
2026-05-05 08:08 35.41177 -11.85830 36143 ft 428 kts 287°
2026-05-05 08:08 35.43208 -11.92633 36143 ft 428 kts 287°
2026-05-05 08:09 35.45248 -11.99483 36146 ft 428 kts 287°
2026-05-05 08:09 35.47287 -12.06345 36147 ft 428 kts 287°
2026-05-05 08:10 35.49322 -12.13210 36151 ft 428 kts 287°
2026-05-05 08:10 35.51358 -12.20094 36151 ft 428 kts 287°
2026-05-05 08:11 35.53387 -12.26970 36151 ft 429 kts 287°
2026-05-05 08:11 35.56024 -12.33563 36156 ft 434 kts 298°
2026-05-05 08:12 35.59342 -12.39717 36154 ft 435 kts 300°
2026-05-05 08:12 35.62796 -12.45843 36154 ft 435 kts 301°
2026-05-05 08:13 35.66251 -12.51963 36154 ft 435 kts 301°
2026-05-05 08:13 35.69688 -12.58097 36157 ft 435 kts 301°
2026-05-05 08:14 35.73112 -12.64236 36156 ft 435 kts 300°
2026-05-05 08:14 35.76531 -12.70383 36156 ft 435 kts 300°
2026-05-05 08:15 35.79945 -12.76532 36160 ft 435 kts 300°
2026-05-05 08:15 35.83360 -12.82690 36161 ft 435 kts 300°
2026-05-05 08:16 35.86747 -12.88810 36159 ft 435 kts 300°
2026-05-05 08:16 35.90154 -12.94975 36162 ft 435 kts 300°
2026-05-05 08:17 35.93556 -13.01144 36162 ft 435 kts 300°
2026-05-05 08:17 35.96954 -13.07315 36162 ft 435 kts 300°
2026-05-05 08:18 36.00347 -13.13488 36165 ft 435 kts 300°
2026-05-05 08:18 36.03739 -13.19672 36165 ft 434 kts 300°
2026-05-05 08:19 36.07129 -13.25862 36164 ft 434 kts 300°
2026-05-05 08:19 36.10513 -13.32053 36168 ft 434 kts 300°
2026-05-05 08:20 36.13896 -13.38252 36168 ft 434 kts 300°
2026-05-05 08:20 36.17253 -13.44415 36168 ft 434 kts 300°
2026-05-05 08:21 36.20626 -13.50621 36173 ft 434 kts 300°
2026-05-05 08:21 36.24000 -13.56839 36168 ft 435 kts 301°
2026-05-05 08:22 36.27378 -13.63074 36184 ft 435 kts 301°
2026-05-05 08:22 36.30751 -13.69311 36169 ft 435 kts 300°
2026-05-05 08:23 36.34119 -13.75550 36173 ft 435 kts 300°
2026-05-05 08:23 36.37462 -13.81757 36189 ft 435 kts 300°
2026-05-05 08:24 36.40825 -13.88010 36168 ft 435 kts 300°
2026-05-05 08:24 36.44184 -13.94269 36180 ft 436 kts 301°
2026-05-05 08:25 36.47545 -14.00541 36179 ft 436 kts 301°
2026-05-05 08:25 36.50903 -14.06819 36186 ft 436 kts 301°
2026-05-05 08:26 36.54263 -14.13115 36184 ft 436 kts 301°
2026-05-05 08:26 36.57615 -14.19406 36184 ft 436 kts 301°
2026-05-05 08:27 36.60965 -14.25703 36186 ft 437 kts 301°
2026-05-05 08:27 36.64293 -14.31974 36185 ft 437 kts 300°
2026-05-05 08:28 36.67642 -14.38294 36193 ft 437 kts 300°
2026-05-05 08:28 36.70986 -14.44617 36192 ft 437 kts 300°
2026-05-05 08:29 36.74326 -14.50944 36194 ft 437 kts 300°
2026-05-05 08:30 36.79326 -14.60438 36190 ft 437 kts 300°
2026-05-05 08:30 36.82661 -14.66784 36206 ft 436 kts 300°
2026-05-05 08:31 36.85977 -14.73106 36194 ft 435 kts 300°
2026-05-05 08:31 36.89291 -14.79437 36202 ft 435 kts 300°
2026-05-05 08:32 36.92574 -14.85723 36200 ft 435 kts 300°
2026-05-05 08:32 36.95881 -14.92063 36199 ft 435 kts 300°
2026-05-05 08:33 36.99088 -14.98476 36204 ft 434 kts 294°
2026-05-05 08:33 37.01227 -15.05458 36200 ft 428 kts 285°
2026-05-05 08:34 37.02880 -15.12606 36205 ft 427 kts 283°
2026-05-05 08:34 37.04445 -15.19780 36205 ft 427 kts 283°
2026-05-05 08:35 37.06012 -15.26955 36203 ft 427 kts 283°
2026-05-05 08:35 37.07322 -15.32910 36203 ft 427 kts 283°
2026-05-05 08:36 37.08903 -15.40085 36208 ft 427 kts 283°
2026-05-05 08:36 37.10736 -15.48421 36209 ft 427 kts 283°
2026-05-05 08:37 37.12043 -15.54391 36214 ft 427 kts 283°
2026-05-05 08:37 37.13611 -15.61572 36214 ft 427 kts 283°
2026-05-05 08:38 37.15175 -15.68757 36216 ft 428 kts 283°
2026-05-05 08:38 37.16737 -15.75958 36215 ft 428 kts 283°
2026-05-05 08:39 37.18297 -15.83176 36214 ft 428 kts 283°
2026-05-05 08:39 37.19851 -15.90385 36216 ft 428 kts 283°
2026-05-05 08:40 37.21403 -15.97607 36217 ft 428 kts 283°
2026-05-05 08:40 37.22949 -16.04827 36218 ft 429 kts 283°
2026-05-05 08:41 37.24494 -16.12068 36221 ft 429 kts 283°
2026-05-05 08:41 37.26025 -16.19260 36220 ft 429 kts 283°
2026-05-05 08:42 37.27561 -16.26505 36226 ft 429 kts 283°
2026-05-05 08:42 37.29093 -16.33752 36223 ft 429 kts 283°
2026-05-05 08:43 37.30622 -16.41012 36221 ft 430 kts 283°
2026-05-05 08:43 37.32149 -16.48285 36226 ft 431 kts 283°
2026-05-05 08:44 37.33672 -16.55560 36229 ft 431 kts 283°
2026-05-05 08:44 37.35190 -16.62840 36229 ft 431 kts 283°
2026-05-05 08:45 37.36705 -16.70125 36228 ft 431 kts 283°
2026-05-05 08:45 37.38206 -16.77370 36232 ft 431 kts 283°
2026-05-05 08:46 37.39714 -16.84675 36234 ft 432 kts 283°
2026-05-05 08:46 37.41218 -16.91981 36232 ft 432 kts 283°
2026-05-05 08:47 37.42718 -16.99294 36234 ft 431 kts 283°
2026-05-05 08:47 37.44211 -17.06600 36234 ft 431 kts 282°
2026-05-05 08:48 37.45703 -17.13922 36236 ft 432 kts 282°
2026-05-05 08:48 37.47191 -17.21253 36240 ft 432 kts 282°
2026-05-05 08:49 37.48665 -17.28540 36241 ft 432 kts 282°
2026-05-05 08:49 37.50144 -17.35876 36243 ft 432 kts 282°
2026-05-05 08:50 37.51620 -17.43222 36245 ft 432 kts 282°
2026-05-05 08:50 37.53092 -17.50574 36244 ft 433 kts 282°
2026-05-05 08:51 37.54559 -17.57927 36250 ft 433 kts 282°
2026-05-05 08:51 37.56022 -17.65288 36259 ft 433 kts 282°
2026-05-05 08:52 37.57481 -17.72651 36251 ft 433 kts 282°
2026-05-05 08:52 37.58934 -17.80012 36250 ft 433 kts 282°
2026-05-05 08:53 37.60386 -17.87394 36250 ft 434 kts 282°
2026-05-05 08:53 37.61826 -17.94738 36251 ft 434 kts 282°
2026-05-05 08:54 37.63270 -18.02132 36254 ft 434 kts 282°
2026-05-05 08:54 37.64709 -18.09524 36254 ft 434 kts 282°
2026-05-05 08:55 37.66144 -18.16924 36261 ft 434 kts 282°
2026-05-05 08:55 37.67576 -18.24336 36262 ft 435 kts 282°
2026-05-05 08:56 37.69005 -18.31758 36263 ft 435 kts 282°
2026-05-05 08:56 37.70421 -18.39142 36261 ft 436 kts 282°
2026-05-05 08:57 37.71842 -18.46577 36266 ft 436 kts 282°
2026-05-05 08:57 37.73261 -18.54027 36261 ft 437 kts 282°
2026-05-05 08:58 37.74677 -18.61489 36268 ft 437 kts 282°
2026-05-05 08:58 37.76088 -18.68956 36271 ft 437 kts 282°
2026-05-05 08:59 37.77495 -18.76425 36276 ft 437 kts 282°
2026-05-05 08:59 37.78897 -18.83896 36277 ft 437 kts 282°
2026-05-05 09:00 37.80293 -18.91366 36279 ft 437 kts 282°
2026-05-05 09:00 37.81686 -18.98850 36275 ft 438 kts 282°
2026-05-05 09:01 37.83069 -19.06308 36274 ft 438 kts 282°
2026-05-05 09:01 37.84457 -19.13816 36271 ft 438 kts 282°
2026-05-05 09:02 37.85842 -19.21339 36272 ft 439 kts 282°
2026-05-05 09:02 37.87222 -19.28863 36274 ft 439 kts 282°
2026-05-05 09:03 37.88597 -19.36386 36276 ft 439 kts 282°
2026-05-05 09:03 37.89967 -19.43914 36279 ft 439 kts 282°
2026-05-05 09:04 37.91332 -19.51449 36279 ft 439 kts 282°
2026-05-05 09:04 37.92696 -19.59002 36284 ft 441 kts 282°
2026-05-05 09:05 37.94060 -19.66583 36285 ft 442 kts 282°
2026-05-05 09:05 37.95421 -19.74179 36284 ft 442 kts 282°
2026-05-05 09:06 37.96767 -19.81723 36288 ft 442 kts 283°
2026-05-05 09:06 37.98120 -19.89337 36290 ft 442 kts 282°
2026-05-05 09:07 37.99468 -19.96946 36290 ft 443 kts 282°
2026-05-05 09:07 38.00918 -20.04530 36286 ft 443 kts 286°
2026-05-05 09:08 38.02814 -20.11958 36293 ft 443 kts 288°
2026-05-05 09:08 38.04769 -20.19369 36295 ft 444 kts 288°
2026-05-05 09:09 38.06662 -20.26836 36291 ft 445 kts 288°
2026-05-05 09:09 38.08499 -20.34280 36294 ft 445 kts 287°
2026-05-05 09:10 38.10335 -20.41783 36294 ft 445 kts 287°
2026-05-05 09:10 38.12167 -20.49287 36297 ft 445 kts 287°
2026-05-05 09:11 38.13999 -20.56806 36299 ft 445 kts 287°
2026-05-05 09:11 38.15827 -20.64324 36300 ft 445 kts 287°
2026-05-05 09:12 38.17650 -20.71848 36305 ft 446 kts 288°
2026-05-05 09:12 38.19459 -20.79340 36302 ft 447 kts 288°
2026-05-05 09:13 38.21278 -20.86894 36298 ft 447 kts 288°
2026-05-05 09:13 38.23093 -20.94457 36304 ft 447 kts 288°
2026-05-05 09:14 38.24905 -21.02027 36307 ft 447 kts 288°
2026-05-05 09:14 38.26710 -21.09595 36313 ft 447 kts 288°
2026-05-05 09:15 38.28510 -21.17172 36311 ft 447 kts 288°
2026-05-05 09:15 38.30308 -21.24756 36311 ft 448 kts 288°
2026-05-05 09:16 38.32103 -21.32355 36312 ft 448 kts 288°
2026-05-05 09:16 38.33893 -21.39960 36313 ft 448 kts 288°
2026-05-05 09:17 38.35678 -21.47562 36301 ft 448 kts 288°
2026-05-05 09:17 38.37448 -21.55131 36317 ft 448 kts 288°
2026-05-05 09:18 38.39226 -21.62758 36318 ft 449 kts 288°
2026-05-05 09:18 38.41000 -21.70387 36325 ft 449 kts 288°
2026-05-05 09:19 38.42767 -21.78017 36317 ft 449 kts 288°
2026-05-05 09:19 38.44530 -21.85655 36322 ft 449 kts 289°
2026-05-05 09:20 38.46289 -21.93297 36321 ft 449 kts 289°
2026-05-05 09:20 38.48044 -22.00950 36325 ft 449 kts 288°
2026-05-05 09:21 38.49793 -22.08599 36317 ft 449 kts 288°
2026-05-05 09:21 38.51537 -22.16256 36325 ft 449 kts 288°
2026-05-05 09:22 38.53265 -22.23864 36324 ft 449 kts 288°
2026-05-05 09:22 38.54998 -22.31525 36322 ft 449 kts 288°
2026-05-05 09:23 38.56729 -22.39197 36324 ft 449 kts 288°
2026-05-05 09:23 38.58453 -22.46867 36316 ft 449 kts 289°
2026-05-05 09:24 38.60173 -22.54549 36324 ft 450 kts 289°
2026-05-05 09:24 38.61890 -22.62235 36333 ft 450 kts 289°
2026-05-05 09:25 38.63604 -22.69937 36335 ft 450 kts 289°
2026-05-05 09:25 38.65299 -22.77582 36335 ft 450 kts 289°
2026-05-05 09:26 38.67000 -22.85280 36335 ft 450 kts 289°
2026-05-05 09:26 38.68698 -22.92988 36338 ft 450 kts 289°
2026-05-05 09:27 38.70391 -23.00702 36338 ft 450 kts 289°
2026-05-05 09:27 38.72078 -23.08417 36338 ft 450 kts 289°
2026-05-05 09:28 38.73761 -23.16141 36340 ft 450 kts 289°
2026-05-05 09:28 38.75440 -23.23869 36339 ft 451 kts 290°
2026-05-05 09:29 38.77116 -23.31616 36342 ft 450 kts 290°
2026-05-05 09:29 38.78503 -23.38044 36342 ft 450 kts 290°
2026-05-05 09:30 38.80439 -23.47047 36340 ft 451 kts 290°
2026-05-05 09:30 38.82099 -23.54800 36353 ft 451 kts 290°
2026-05-05 09:31 38.83754 -23.62555 36350 ft 451 kts 290°
2026-05-05 09:31 38.85127 -23.69009 36348 ft 451 kts 290°
2026-05-05 09:32 38.86772 -23.76774 36339 ft 451 kts 291°
2026-05-05 09:32 38.88413 -23.84542 36362 ft 451 kts 291°
2026-05-05 09:33 38.90049 -23.92313 36348 ft 451 kts 291°
2026-05-05 09:33 38.91680 -24.00090 36345 ft 451 kts 291°
2026-05-05 09:34 38.93306 -24.07870 36348 ft 451 kts 291°
2026-05-05 09:34 38.94915 -24.15604 36357 ft 451 kts 291°
2026-05-05 09:35 38.96533 -24.23401 36357 ft 451 kts 292°
2026-05-05 09:35 38.98948 -24.35095 36362 ft 451 kts 292°
2026-05-05 09:36 39.00551 -24.42891 36358 ft 451 kts 292°
2026-05-05 09:36 39.02150 -24.50697 36360 ft 452 kts 292°
2026-05-05 09:37 39.03744 -24.58510 36366 ft 452 kts 292°
2026-05-05 09:37 39.05334 -24.66333 36368 ft 452 kts 292°
2026-05-05 09:38 39.06919 -24.74158 36364 ft 452 kts 293°
2026-05-05 09:38 39.08494 -24.81972 36369 ft 451 kts 293°
2026-05-05 09:39 39.10066 -24.89792 36371 ft 451 kts 293°
2026-05-05 09:39 39.11621 -24.97560 36371 ft 451 kts 293°
2026-05-05 09:40 39.13183 -25.05387 36365 ft 451 kts 293°
2026-05-05 09:40 39.14738 -25.13213 36376 ft 451 kts 293°
2026-05-05 09:41 39.16288 -25.21043 36376 ft 451 kts 293°
2026-05-05 09:41 39.17830 -25.28866 36378 ft 450 kts 293°
2026-05-05 09:42 39.19365 -25.36678 36376 ft 450 kts 293°
2026-05-05 09:42 39.20895 -25.44494 36379 ft 450 kts 293°
2026-05-05 09:43 39.22421 -25.52319 36382 ft 450 kts 293°
2026-05-05 09:43 39.23940 -25.60140 36382 ft 450 kts 293°
2026-05-05 09:44 39.25444 -25.67916 36379 ft 449 kts 292°
2026-05-05 09:44 39.26944 -25.75715 36384 ft 446 kts 292°
2026-05-05 09:45 39.28436 -25.83486 36386 ft 446 kts 292°
2026-05-05 09:45 39.29923 -25.91253 36390 ft 446 kts 292°
2026-05-05 09:46 39.31404 -25.99023 36382 ft 445 kts 292°
2026-05-05 09:46 39.32874 -26.06779 36390 ft 444 kts 292°
2026-05-05 09:47 39.34340 -26.14536 36392 ft 444 kts 292°
2026-05-05 09:47 39.35798 -26.22283 36392 ft 443 kts 292°
2026-05-05 09:48 39.37237 -26.29959 36394 ft 442 kts 291°
2026-05-05 09:48 39.38678 -26.37676 36393 ft 441 kts 291°
2026-05-05 09:49 39.40114 -26.45394 36400 ft 441 kts 291°
2026-05-05 09:49 39.41545 -26.53110 36395 ft 441 kts 291°
2026-05-05 09:50 39.42971 -26.60835 36387 ft 441 kts 291°
2026-05-05 09:50 39.44387 -26.68547 36396 ft 440 kts 291°
2026-05-05 09:51 39.45794 -26.76236 36397 ft 439 kts 291°
2026-05-05 09:51 39.47188 -26.83874 36397 ft 439 kts 291°
2026-05-05 09:52 39.48584 -26.91560 36399 ft 438 kts 291°
2026-05-05 09:52 39.49973 -26.99239 36397 ft 438 kts 291°
2026-05-05 09:53 39.51358 -27.06925 36400 ft 438 kts 291°
2026-05-05 09:53 39.52736 -27.14605 36400 ft 438 kts 291°
2026-05-05 09:54 39.54110 -27.22289 36399 ft 438 kts 290°
2026-05-05 09:54 39.55476 -27.29967 36403 ft 437 kts 290°
2026-05-05 09:55 39.56838 -27.37651 36405 ft 437 kts 290°
2026-05-05 09:55 39.58194 -27.45332 36404 ft 437 kts 290°
2026-05-05 09:56 39.59544 -27.53015 36410 ft 437 kts 290°
2026-05-05 09:56 39.60888 -27.60691 36410 ft 436 kts 290°
2026-05-05 09:57 39.62217 -27.68317 36408 ft 436 kts 290°
2026-05-05 09:57 39.63550 -27.75991 36411 ft 436 kts 290°
2026-05-05 09:58 39.64876 -27.83660 36411 ft 435 kts 290°
2026-05-05 09:58 39.66195 -27.91327 36411 ft 435 kts 290°
2026-05-05 09:59 39.67510 -27.98993 36414 ft 435 kts 290°
2026-05-05 09:59 39.68818 -28.06651 36415 ft 434 kts 289°
2026-05-05 10:00 39.70118 -28.14303 36415 ft 433 kts 290°
2026-05-05 10:00 39.71403 -28.21893 36421 ft 433 kts 289°
2026-05-05 10:01 39.72692 -28.29533 36414 ft 433 kts 289°
2026-05-05 10:01 39.73976 -28.37185 36415 ft 433 kts 289°
2026-05-05 10:02 39.75256 -28.44839 36417 ft 433 kts 289°
2026-05-05 10:02 39.76529 -28.52491 36416 ft 433 kts 289°
2026-05-05 10:03 39.77795 -28.60136 36420 ft 432 kts 289°
2026-05-05 10:03 39.79056 -28.67781 36403 ft 432 kts 289°
2026-05-05 10:04 39.80311 -28.75418 36419 ft 431 kts 289°
2026-05-05 10:04 39.81551 -28.82998 36422 ft 431 kts 289°
2026-05-05 10:05 39.82795 -28.90635 36422 ft 431 kts 289°
2026-05-05 10:05 39.84032 -28.98268 36416 ft 430 kts 290°
2026-05-05 10:06 39.85256 -29.05863 36427 ft 427 kts 290°
2026-05-05 10:06 39.86471 -29.13423 36427 ft 427 kts 290°
2026-05-05 10:07 39.87684 -29.20991 36427 ft 427 kts 290°
2026-05-05 10:07 39.88891 -29.28567 36420 ft 427 kts 290°
2026-05-05 10:08 39.90083 -29.36085 36426 ft 426 kts 290°
2026-05-05 10:08 39.91278 -29.43651 36425 ft 426 kts 290°
2026-05-05 10:09 39.92466 -29.51209 36432 ft 426 kts 290°
2026-05-05 10:09 39.93650 -29.58777 36430 ft 426 kts 289°
2026-05-05 10:10 39.94827 -29.66338 36430 ft 426 kts 289°
2026-05-05 10:10 39.96001 -29.73908 36430 ft 426 kts 289°
2026-05-05 10:11 39.97169 -29.81476 36430 ft 426 kts 289°
2026-05-05 10:11 39.98325 -29.89002 36433 ft 425 kts 289°
2026-05-05 10:12 39.99478 -29.96546 36433 ft 424 kts 289°
2026-05-05 10:12 40.00620 -30.04095 36433 ft 424 kts 289°
2026-05-05 10:13 40.01711 -30.11671 36413 ft 425 kts 289°
2026-05-05 10:13 40.02785 -30.19236 36435 ft 423 kts 289°
2026-05-05 10:14 40.03859 -30.26786 36439 ft 423 kts 289°
2026-05-05 10:14 40.04933 -30.34331 36437 ft 422 kts 289°
2026-05-05 10:15 40.05999 -30.41863 36430 ft 422 kts 289°
2026-05-05 10:15 40.07054 -30.49347 36438 ft 422 kts 289°
2026-05-05 10:16 40.08112 -30.56885 36426 ft 422 kts 289°
2026-05-05 10:16 40.09163 -30.64420 36425 ft 422 kts 289°
2026-05-05 10:17 40.10211 -30.71968 36438 ft 422 kts 289°
2026-05-05 10:17 40.11252 -30.79508 36439 ft 422 kts 289°
2026-05-05 10:18 40.12287 -30.87045 36432 ft 421 kts 289°
2026-05-05 10:18 40.13311 -30.94531 36434 ft 421 kts 288°
2026-05-05 10:19 40.14337 -31.02071 36440 ft 421 kts 288°
2026-05-05 10:19 40.15357 -31.09604 36440 ft 421 kts 288°
2026-05-05 10:20 40.15694 -31.12099 36436 ft 421 kts 288°